contact:dominique.lefevre@mio.osupytheas.fr, maurice.libes@osupytheas.fr, didier.mallarino@osupytheas.fr
Project:EMSO http://www.emso-fr.org/EMSO-France
Depth: 2436.0 m
Title:EMSO Ligure Ouest : Data MII capteur MICROCAT
DateTime_Computer,Latitude,Longitude,Temperature,Conductivity,Pressure,DateTime_Instrument
DateTime_Computer,Latitude,Longitude,degC,S m-1,dbar,DateTime_Instrument
2019-06-21T00:02:14Z,42.805,6.029,13.2956,4.59967,2469.96,2019-6-21T02:02:31Z
2019-06-21T00:05:17Z,42.805,6.029,13.2955,4.59973,2469.937,2019-6-21T02:05:34Z
2019-06-21T00:08:20Z,42.805,6.029,13.2957,4.59973,2469.923,2019-6-21T02:08:37Z
2019-06-21T00:11:23Z,42.805,6.029,13.2957,4.59970,2469.914,2019-6-21T02:11:40Z
2019-06-21T00:14:26Z,42.805,6.029,13.2954,4.59971,2469.923,2019-6-21T02:14:43Z
2019-06-21T00:17:29Z,42.805,6.029,13.2958,4.59971,2469.9,2019-6-21T02:17:46Z
2019-06-21T00:20:32Z,42.805,6.029,13.2957,4.59964,2469.9,2019-6-21T02:20:49Z
2019-06-21T00:23:35Z,42.805,6.029,13.2955,4.59968,2469.923,2019-6-21T02:23:51Z
2019-06-21T00:26:38Z,42.805,6.029,13.2957,4.59971,2469.89,2019-6-21T02:26:54Z
2019-06-21T00:29:41Z,42.805,6.029,13.2953,4.59971,2469.937,2019-6-21T02:29:57Z
2019-06-21T00:32:44Z,42.805,6.029,13.2956,4.59968,2469.937,2019-6-21T02:33:00Z
2019-06-21T00:35:47Z,42.805,6.029,13.2957,4.59976,2469.9,2019-6-21T02:36:03Z
2019-06-21T00:38:50Z,42.805,6.029,13.2956,4.59971,2469.923,2019-6-21T02:39:06Z
2019-06-21T00:41:53Z,42.805,6.029,13.2955,4.59973,2469.914,2019-6-21T02:42:09Z
2019-06-21T00:44:56Z,42.805,6.029,13.2954,4.59966,2469.937,2019-6-21T02:45:12Z
2019-06-21T00:47:59Z,42.805,6.029,13.2956,4.59971,2469.89,2019-6-21T02:48:15Z
2019-06-21T00:51:01Z,42.805,6.029,13.2955,4.59976,2469.914,2019-6-21T02:51:18Z
2019-06-21T00:54:04Z,42.805,6.029,13.2955,4.59980,2469.9,2019-6-21T02:54:21Z
2019-06-21T00:57:07Z,42.805,6.029,13.2957,4.59978,2469.923,2019-6-21T02:57:24Z
2019-06-21T01:00:10Z,42.805,6.029,13.2961,4.59986,2469.937,2019-6-21T03:00:27Z
2019-06-21T01:03:13Z,42.805,6.029,13.2957,4.59989,2469.89,2019-6-21T03:03:30Z
2019-06-21T01:06:16Z,42.805,6.029,13.2956,4.59983,2469.914,2019-6-21T03:06:33Z
2019-06-21T01:09:19Z,42.805,6.029,13.2958,4.59978,2469.876,2019-6-21T03:09:36Z
2019-06-21T01:12:22Z,42.805,6.029,13.2959,4.59976,2469.914,2019-6-21T03:12:39Z
2019-06-21T01:15:25Z,42.805,6.029,13.2958,4.59974,2469.876,2019-6-21T03:15:42Z
2019-06-21T01:18:28Z,42.805,6.029,13.2955,4.59983,2469.914,2019-6-21T03:18:45Z
2019-06-21T01:21:31Z,42.805,6.029,13.2956,4.59979,2469.89,2019-6-21T03:21:47Z
2019-06-21T01:24:34Z,42.805,6.029,13.2957,4.59974,2469.853,2019-6-21T03:24:50Z
2019-06-21T01:27:37Z,42.805,6.029,13.2957,4.59970,2469.89,2019-6-21T03:27:53Z
2019-06-21T01:30:40Z,42.805,6.029,13.2956,4.59974,2469.89,2019-6-21T03:30:56Z
2019-06-21T01:33:43Z,42.805,6.029,13.2957,4.59968,2469.89,2019-6-21T03:33:59Z
2019-06-21T01:36:46Z,42.805,6.029,13.2955,4.59968,2469.914,2019-6-21T03:37:02Z
2019-06-21T01:39:49Z,42.805,6.029,13.2958,4.59976,2469.853,2019-6-21T03:40:05Z
2019-06-21T01:42:52Z,42.805,6.029,13.2957,4.59984,2469.867,2019-6-21T03:43:08Z
2019-06-21T01:45:55Z,42.805,6.029,13.2958,4.59979,2469.853,2019-6-21T03:46:11Z
2019-06-21T01:48:57Z,42.805,6.029,13.2961,4.59981,2469.867,2019-6-21T03:49:14Z
2019-06-21T01:52:00Z,42.805,6.029,13.2953,4.59989,2469.853,2019-6-21T03:52:17Z
2019-06-21T01:55:03Z,42.805,6.029,13.2959,4.59986,2469.89,2019-6-21T03:55:20Z
2019-06-21T01:58:06Z,42.805,6.029,13.2953,4.59986,2469.89,2019-6-21T03:58:23Z
2019-06-21T02:01:09Z,42.805,6.029,13.2958,4.59992,2469.867,2019-6-21T04:01:26Z
2019-06-21T02:04:12Z,42.805,6.029,13.2956,4.60027,2469.853,2019-6-21T04:04:29Z
2019-06-21T02:07:15Z,42.805,6.029,13.2957,4.59996,2469.853,2019-6-21T04:07:32Z
2019-06-21T02:10:18Z,42.805,6.029,13.2961,4.60024,2469.876,2019-6-21T04:10:35Z
2019-06-21T02:13:21Z,42.805,6.029,13.2956,4.60058,2469.83,2019-6-21T04:13:38Z
2019-06-21T02:16:24Z,42.805,6.029,13.2957,4.60002,2469.853,2019-6-21T04:16:41Z
2019-06-21T02:19:27Z,42.805,6.029,13.2957,4.59994,2469.853,2019-6-21T04:19:43Z
2019-06-21T02:22:30Z,42.805,6.029,13.2957,4.60002,2469.853,2019-6-21T04:22:46Z
2019-06-21T02:25:33Z,42.805,6.029,13.2958,4.60027,2469.83,2019-6-21T04:25:49Z
2019-06-21T02:28:36Z,42.805,6.029,13.2957,4.60075,2469.844,2019-6-21T04:28:52Z
2019-06-21T02:31:39Z,42.805,6.029,13.2953,4.60037,2469.83,2019-6-21T04:31:55Z
2019-06-21T02:34:42Z,42.805,6.029,13.2958,4.60022,2469.853,2019-6-21T04:34:58Z
2019-06-21T02:37:45Z,42.805,6.029,13.2958,4.60034,2469.83,2019-6-21T04:38:01Z
2019-06-21T02:40:48Z,42.805,6.029,13.2957,4.60026,2469.83,2019-6-21T04:41:04Z
2019-06-21T02:43:51Z,42.805,6.029,13.2957,4.60023,2469.89,2019-6-21T04:44:07Z
2019-06-21T02:46:54Z,42.805,6.029,13.2952,4.60002,2469.83,2019-6-21T04:47:10Z
2019-06-21T02:49:56Z,42.805,6.029,13.2961,4.59998,2469.83,2019-6-21T04:50:13Z
2019-06-21T02:52:59Z,42.805,6.029,13.2958,4.60005,2469.83,2019-6-21T04:53:16Z
2019-06-21T02:56:02Z,42.805,6.029,13.2958,4.60017,2469.867,2019-6-21T04:56:19Z
2019-06-21T02:59:05Z,42.805,6.029,13.2957,4.60045,2469.844,2019-6-21T04:59:22Z
2019-06-21T03:02:08Z,42.805,6.029,13.2958,4.60011,2469.83,2019-6-21T05:02:25Z
2019-06-21T03:05:11Z,42.805,6.029,13.2961,4.59996,2469.83,2019-6-21T05:05:28Z
2019-06-21T03:08:14Z,42.805,6.029,13.2958,4.59996,2469.853,2019-6-21T05:08:31Z
2019-06-21T03:11:17Z,42.805,6.029,13.2958,4.59997,2469.83,2019-6-21T05:11:34Z
2019-06-21T03:14:20Z,42.805,6.029,13.2957,4.59996,2469.83,2019-6-21T05:14:37Z
2019-06-21T03:17:23Z,42.805,6.029,13.2957,4.59999,2469.83,2019-6-21T05:17:40Z
2019-06-21T03:20:26Z,42.805,6.029,13.2959,4.60017,2469.806,2019-6-21T05:20:42Z
2019-06-21T03:23:29Z,42.805,6.029,13.2958,4.60020,2469.806,2019-6-21T05:23:45Z
2019-06-21T03:26:32Z,42.805,6.029,13.2957,4.60044,2469.844,2019-6-21T05:26:48Z
2019-06-21T03:29:35Z,42.805,6.029,13.2957,4.60044,2469.83,2019-6-21T05:29:51Z
2019-06-21T03:32:38Z,42.805,6.029,13.2958,4.60034,2469.821,2019-6-21T05:32:54Z
2019-06-21T03:35:41Z,42.805,6.029,13.2958,4.60081,2469.806,2019-6-21T05:35:57Z
2019-06-21T03:38:44Z,42.805,6.029,13.2957,4.60074,2469.806,2019-6-21T05:39:00Z
2019-06-21T03:41:47Z,42.805,6.029,13.2965,4.60038,2469.821,2019-6-21T05:42:03Z
2019-06-21T03:44:50Z,42.805,6.029,13.2967,4.60043,2469.806,2019-6-21T05:45:06Z
2019-06-21T03:47:52Z,42.805,6.029,13.2967,4.60036,2469.853,2019-6-21T05:48:09Z
2019-06-21T03:50:55Z,42.805,6.029,13.2982,4.60027,2469.83,2019-6-21T05:51:12Z
2019-06-21T03:53:58Z,42.805,6.029,13.3017,4.60019,2469.844,2019-6-21T05:54:15Z
2019-06-21T03:57:01Z,42.805,6.029,13.3017,4.60049,2469.806,2019-6-21T05:57:18Z
2019-06-21T04:00:04Z,42.805,6.029,13.3028,4.60043,2469.797,2019-6-21T06:00:21Z
2019-06-21T04:03:07Z,42.805,6.029,13.3038,4.60046,2469.821,2019-6-21T06:03:24Z
2019-06-21T04:06:10Z,42.805,6.029,13.3034,4.59992,2469.821,2019-6-21T06:06:27Z
2019-06-21T04:09:13Z,42.805,6.029,13.3041,4.59999,2469.844,2019-6-21T06:09:30Z
2019-06-21T04:12:16Z,42.805,6.029,13.3038,4.59993,2469.797,2019-6-21T06:12:33Z
2019-06-21T04:15:19Z,42.805,6.029,13.3039,4.60004,2469.83,2019-6-21T06:15:36Z
2019-06-21T04:18:22Z,42.805,6.029,13.3026,4.59996,2469.783,2019-6-21T06:18:38Z
2019-06-21T04:21:25Z,42.805,6.029,13.3043,4.59994,2469.806,2019-6-21T06:21:41Z
2019-06-21T04:24:28Z,42.805,6.029,13.3044,4.60000,2469.821,2019-6-21T06:24:44Z
2019-06-21T04:27:31Z,42.805,6.029,13.3023,4.60008,2469.844,2019-6-21T06:27:47Z
2019-06-21T04:30:34Z,42.805,6.029,13.3031,4.59989,2469.821,2019-6-21T06:30:50Z
2019-06-21T04:33:37Z,42.805,6.029,13.3034,4.59997,2469.821,2019-6-21T06:33:53Z
2019-06-21T04:36:40Z,42.805,6.029,13.3046,4.60009,2469.821,2019-6-21T06:36:56Z
2019-06-21T04:39:43Z,42.805,6.029,13.3043,4.60011,2469.793,2019-6-21T06:39:59Z
2019-06-21T04:42:46Z,42.805,6.029,13.3049,4.60000,2469.821,2019-6-21T06:43:02Z
2019-06-21T04:45:48Z,42.805,6.029,13.3046,4.59996,2469.834,2019-6-21T06:46:05Z
2019-06-21T04:48:51Z,42.805,6.029,13.3044,4.59996,2469.806,2019-6-21T06:49:08Z
2019-06-21T04:51:54Z,42.805,6.029,13.3034,4.60016,2469.806,2019-6-21T06:52:11Z
2019-06-21T04:54:57Z,42.805,6.029,13.3024,4.60025,2469.844,2019-6-21T06:55:14Z
2019-06-21T04:58:00Z,42.805,6.029,13.3036,4.59994,2469.844,2019-6-21T06:58:17Z
2019-06-21T05:01:03Z,42.805,6.029,13.3050,4.60014,2469.821,2019-6-21T07:01:20Z
2019-06-21T05:04:06Z,42.805,6.029,13.3036,4.59993,2469.844,2019-6-21T07:04:23Z
2019-06-21T05:07:09Z,42.805,6.029,13.3043,4.60006,2469.821,2019-6-21T07:07:26Z
2019-06-21T05:10:12Z,42.805,6.029,13.3039,4.59993,2469.821,2019-6-21T07:10:29Z
2019-06-21T05:13:15Z,42.805,6.029,13.3033,4.59999,2469.806,2019-6-21T07:13:32Z
2019-06-21T05:16:18Z,42.805,6.029,13.3028,4.59999,2469.821,2019-6-21T07:16:35Z
2019-06-21T05:19:21Z,42.805,6.029,13.3026,4.59992,2469.806,2019-6-21T07:19:37Z
2019-06-21T05:22:24Z,42.805,6.029,13.3035,4.59989,2469.821,2019-6-21T07:22:40Z
2019-06-21T05:25:27Z,42.805,6.029,13.3038,4.59987,2469.797,2019-6-21T07:25:43Z
2019-06-21T05:28:30Z,42.805,6.029,13.3029,4.59990,2469.806,2019-6-21T07:28:46Z
2019-06-21T05:31:33Z,42.805,6.029,13.3024,4.59998,2469.83,2019-6-21T07:31:49Z
2019-06-21T05:34:36Z,42.805,6.029,13.3031,4.59993,2469.821,2019-6-21T07:34:52Z
2019-06-21T05:37:39Z,42.805,6.029,13.3039,4.59994,2469.806,2019-6-21T07:37:55Z
2019-06-21T05:40:42Z,42.805,6.029,13.3021,4.59987,2469.844,2019-6-21T07:40:58Z
2019-06-21T05:43:44Z,42.805,6.029,13.3024,4.59990,2469.806,2019-6-21T07:44:01Z
2019-06-21T05:46:47Z,42.805,6.029,13.3004,4.59991,2469.797,2019-6-21T07:47:04Z
2019-06-21T05:49:50Z,42.805,6.029,13.3015,4.60009,2469.821,2019-6-21T07:50:07Z
2019-06-21T05:52:53Z,42.805,6.029,13.3021,4.60028,2469.821,2019-6-21T07:53:10Z
2019-06-21T05:55:56Z,42.805,6.029,13.3020,4.59994,2469.806,2019-6-21T07:56:13Z
2019-06-21T05:58:59Z,42.805,6.029,13.3033,4.59990,2469.83,2019-6-21T07:59:16Z
2019-06-21T06:02:02Z,42.805,6.029,13.3015,4.60007,2469.806,2019-6-21T08:02:19Z
2019-06-21T06:05:05Z,42.805,6.029,13.3021,4.60019,2469.821,2019-6-21T08:05:22Z
2019-06-21T06:08:08Z,42.805,6.029,13.3014,4.60001,2469.853,2019-6-21T08:08:25Z
2019-06-21T06:11:11Z,42.805,6.029,13.3029,4.60014,2469.844,2019-6-21T08:11:28Z
2019-06-21T06:14:14Z,42.805,6.029,13.3017,4.59989,2469.844,2019-6-21T08:14:31Z
2019-06-21T06:17:17Z,42.805,6.029,13.3014,4.59991,2469.821,2019-6-21T08:17:33Z
2019-06-21T06:20:20Z,42.805,6.029,13.3024,4.59987,2469.867,2019-6-21T08:20:36Z
2019-06-21T06:23:23Z,42.805,6.029,13.3019,4.59991,2469.844,2019-6-21T08:23:39Z
2019-06-21T06:26:26Z,42.805,6.029,13.3023,4.60013,2469.844,2019-6-21T08:26:42Z
2019-06-21T06:29:29Z,42.805,6.029,13.3024,4.59994,2469.83,2019-6-21T08:29:45Z
2019-06-21T06:32:32Z,42.805,6.029,13.3014,4.60020,2469.867,2019-6-21T08:32:48Z
2019-06-21T06:35:35Z,42.805,6.029,13.3009,4.60003,2469.83,2019-6-21T08:35:51Z
2019-06-21T06:38:38Z,42.805,6.029,13.3002,4.59993,2469.867,2019-6-21T08:38:54Z
2019-06-21T06:41:41Z,42.805,6.029,13.3020,4.59994,2469.867,2019-6-21T08:41:57Z
2019-06-21T06:44:44Z,42.805,6.029,13.3016,4.59996,2469.867,2019-6-21T08:45:00Z
2019-06-21T06:47:46Z,42.805,6.029,13.3021,4.59996,2469.867,2019-6-21T08:48:03Z
2019-06-21T06:50:49Z,42.805,6.029,13.3026,4.60013,2469.853,2019-6-21T08:51:06Z
2019-06-21T06:53:52Z,42.805,6.029,13.3023,4.59991,2469.821,2019-6-21T08:54:09Z
2019-06-21T06:56:55Z,42.805,6.029,13.3010,4.59991,2469.89,2019-6-21T08:57:12Z
2019-06-21T06:59:58Z,42.805,6.029,13.3019,4.60017,2469.844,2019-6-21T09:00:15Z
2019-06-21T07:03:01Z,42.805,6.029,13.3031,4.60007,2469.867,2019-6-21T09:03:18Z
2019-06-21T07:06:04Z,42.805,6.029,13.3030,4.60004,2469.83,2019-6-21T09:06:21Z
2019-06-21T07:09:07Z,42.805,6.029,13.3019,4.60002,2469.867,2019-6-21T09:09:24Z
2019-06-21T07:12:10Z,42.805,6.029,13.3034,4.59996,2469.867,2019-6-21T09:12:27Z
2019-06-21T07:15:13Z,42.805,6.029,13.3032,4.59994,2469.867,2019-6-21T09:15:30Z
2019-06-21T07:18:16Z,42.805,6.029,13.3031,4.60009,2469.83,2019-6-21T09:18:32Z
2019-06-21T07:21:19Z,42.805,6.029,13.3018,4.59999,2469.89,2019-6-21T09:21:35Z
2019-06-21T07:24:22Z,42.805,6.029,13.3027,4.60002,2469.844,2019-6-21T09:24:38Z
2019-06-21T07:27:25Z,42.805,6.029,13.3019,4.59998,2469.89,2019-6-21T09:27:41Z
2019-06-21T07:30:28Z,42.805,6.029,13.3024,4.59991,2469.844,2019-6-21T09:30:44Z
2019-06-21T07:33:31Z,42.805,6.029,13.3017,4.59999,2469.853,2019-6-21T09:33:47Z
2019-06-21T07:36:34Z,42.805,6.029,13.3010,4.59987,2469.867,2019-6-21T09:36:50Z
2019-06-21T07:39:37Z,42.805,6.029,13.3046,4.59991,2469.881,2019-6-21T09:39:53Z
2019-06-21T07:42:40Z,42.805,6.029,13.3006,4.59985,2469.844,2019-6-21T09:42:56Z
2019-06-21T07:45:42Z,42.805,6.029,13.3006,4.60009,2469.89,2019-6-21T09:45:59Z
2019-06-21T07:48:45Z,42.805,6.029,13.3001,4.60013,2469.876,2019-6-21T09:49:02Z
2019-06-21T07:51:48Z,42.805,6.029,13.3018,4.59998,2469.876,2019-6-21T09:52:05Z
2019-06-21T07:54:51Z,42.805,6.029,13.3017,4.59986,2469.867,2019-6-21T09:55:08Z
2019-06-21T07:57:54Z,42.805,6.029,13.3008,4.60001,2469.89,2019-6-21T09:58:11Z
2019-06-21T08:00:57Z,42.805,6.029,13.2998,4.59987,2469.89,2019-6-21T10:01:14Z
2019-06-21T08:04:00Z,42.805,6.029,13.3019,4.60005,2469.89,2019-6-21T10:04:17Z
2019-06-21T08:07:03Z,42.805,6.029,13.3008,4.60027,2469.876,2019-6-21T10:07:20Z
2019-06-21T08:10:06Z,42.805,6.029,13.3019,4.59991,2469.89,2019-6-21T10:10:23Z
2019-06-21T08:13:09Z,42.805,6.029,13.3011,4.59997,2469.876,2019-6-21T10:13:26Z
2019-06-21T08:16:12Z,42.805,6.029,13.3024,4.59999,2469.89,2019-6-21T10:16:28Z
2019-06-21T08:19:15Z,42.805,6.029,13.3013,4.59992,2469.89,2019-6-21T10:19:31Z
2019-06-21T08:22:18Z,42.805,6.029,13.3027,4.59994,2469.89,2019-6-21T10:22:34Z
2019-06-21T08:25:21Z,42.805,6.029,13.3024,4.60001,2469.867,2019-6-21T10:25:37Z
2019-06-21T08:28:24Z,42.805,6.029,13.3014,4.59995,2469.89,2019-6-21T10:28:40Z
2019-06-21T08:31:27Z,42.805,6.029,13.3021,4.59995,2469.914,2019-6-21T10:31:43Z
2019-06-21T08:34:30Z,42.805,6.029,13.3006,4.60001,2469.89,2019-6-21T10:34:46Z
2019-06-21T08:37:33Z,42.805,6.029,13.3021,4.59999,2469.867,2019-6-21T10:37:49Z
2019-06-21T08:40:36Z,42.805,6.029,13.3015,4.60016,2469.853,2019-6-21T10:40:52Z
2019-06-21T08:43:39Z,42.805,6.029,13.3021,4.60010,2469.9,2019-6-21T10:43:55Z
2019-06-21T08:46:42Z,42.805,6.029,13.3031,4.59999,2469.914,2019-6-21T10:46:58Z
2019-06-21T08:49:44Z,42.805,6.029,13.3017,4.59996,2469.876,2019-6-21T10:50:01Z
2019-06-21T08:52:47Z,42.805,6.029,13.3019,4.59996,2469.876,2019-6-21T10:53:04Z
2019-06-21T08:55:50Z,42.805,6.029,13.3016,4.60001,2469.83,2019-6-21T10:56:07Z
2019-06-21T08:58:53Z,42.805,6.029,13.3027,4.60017,2469.923,2019-6-21T10:59:10Z
2019-06-21T09:01:56Z,42.805,6.029,13.3030,4.59996,2469.886,2019-6-21T11:02:13Z
2019-06-21T09:04:59Z,42.805,6.029,13.3027,4.59995,2469.867,2019-6-21T11:05:16Z
2019-06-21T09:08:02Z,42.805,6.029,13.3026,4.60016,2469.89,2019-6-21T11:08:19Z
2019-06-21T09:11:05Z,42.805,6.029,13.3015,4.60003,2469.89,2019-6-21T11:11:22Z
2019-06-21T09:14:08Z,42.805,6.029,13.3035,4.59994,2469.89,2019-6-21T11:14:25Z
2019-06-21T09:17:11Z,42.805,6.029,13.3011,4.59991,2469.937,2019-6-21T11:17:28Z
2019-06-21T09:20:14Z,42.805,6.029,13.3019,4.59991,2469.947,2019-6-21T11:20:31Z
2019-06-21T09:23:17Z,42.805,6.029,13.3009,4.59997,2469.876,2019-6-21T11:23:33Z
2019-06-21T09:26:20Z,42.805,6.029,13.3026,4.59990,2469.876,2019-6-21T11:26:36Z
2019-06-21T09:29:23Z,42.805,6.029,13.3028,4.59997,2469.89,2019-6-21T11:29:39Z
2019-06-21T09:32:26Z,42.805,6.029,13.3012,4.59999,2469.914,2019-6-21T11:32:42Z
2019-06-21T09:35:29Z,42.805,6.029,13.3017,4.59996,2469.914,2019-6-21T11:35:45Z
2019-06-21T09:38:32Z,42.805,6.029,13.3021,4.60003,2469.89,2019-6-21T11:38:48Z
2019-06-21T09:41:35Z,42.805,6.029,13.3021,4.60007,2469.876,2019-6-21T11:41:51Z
2019-06-21T09:44:38Z,42.805,6.029,13.3015,4.59994,2469.914,2019-6-21T11:44:54Z
2019-06-21T09:47:41Z,42.805,6.029,13.3031,4.59984,2469.914,2019-6-21T11:47:57Z
2019-06-21T09:50:44Z,42.805,6.029,13.3039,4.60000,2469.853,2019-6-21T11:51:00Z
2019-06-21T09:53:46Z,42.805,6.029,13.3034,4.60009,2469.89,2019-6-21T11:54:03Z
2019-06-21T09:56:49Z,42.805,6.029,13.3018,4.59998,2469.876,2019-6-21T11:57:06Z
2019-06-21T09:59:52Z,42.805,6.029,13.3043,4.59992,2469.914,2019-6-21T12:00:09Z
2019-06-21T10:02:55Z,42.805,6.029,13.3026,4.59999,2469.914,2019-6-21T12:03:12Z
2019-06-21T10:05:58Z,42.805,6.029,13.3011,4.59991,2469.914,2019-6-21T12:06:15Z
2019-06-21T10:09:01Z,42.805,6.029,13.3025,4.60001,2469.876,2019-6-21T12:09:18Z
2019-06-21T10:12:04Z,42.805,6.029,13.3014,4.60003,2469.867,2019-6-21T12:12:21Z
2019-06-21T10:15:07Z,42.805,6.029,13.3011,4.59998,2469.914,2019-6-21T12:15:24Z
2019-06-21T10:18:10Z,42.805,6.029,13.3015,4.60000,2469.853,2019-6-21T12:18:27Z
2019-06-21T10:21:13Z,42.805,6.029,13.2990,4.60009,2469.876,2019-6-21T12:21:30Z
2019-06-21T10:24:16Z,42.805,6.029,13.3005,4.60003,2469.89,2019-6-21T12:24:33Z
2019-06-21T10:27:19Z,42.805,6.029,13.3015,4.60009,2469.89,2019-6-21T12:27:36Z
2019-06-21T10:30:22Z,42.805,6.029,13.3025,4.60033,2469.876,2019-6-21T12:30:38Z
2019-06-21T10:33:25Z,42.805,6.029,13.3018,4.60024,2469.844,2019-6-21T12:33:41Z
2019-06-21T10:36:28Z,42.805,6.029,13.3029,4.60033,2469.867,2019-6-21T12:36:44Z
2019-06-21T10:39:31Z,42.805,6.029,13.3027,4.60031,2469.867,2019-6-21T12:39:47Z
2019-06-21T10:42:34Z,42.805,6.029,13.3012,4.60057,2469.867,2019-6-21T12:42:50Z
2019-06-21T10:45:37Z,42.805,6.029,13.2964,4.60033,2469.89,2019-6-21T12:45:53Z
2019-06-21T10:48:40Z,42.805,6.029,13.2961,4.60036,2469.853,2019-6-21T12:48:56Z
2019-06-21T10:51:43Z,42.805,6.029,13.2956,4.60061,2469.867,2019-6-21T12:51:59Z
2019-06-21T10:54:46Z,42.805,6.029,13.2957,4.60001,2469.876,2019-6-21T12:55:02Z
2019-06-21T10:57:49Z,42.805,6.029,13.2959,4.59988,2469.876,2019-6-21T12:58:05Z
2019-06-21T11:00:51Z,42.805,6.029,13.2957,4.59990,2469.853,2019-6-21T13:01:08Z
2019-06-21T11:03:54Z,42.805,6.029,13.2957,4.59983,2469.867,2019-6-21T13:04:11Z
2019-06-21T11:06:57Z,42.805,6.029,13.2960,4.59972,2469.83,2019-6-21T13:07:14Z
2019-06-21T11:10:00Z,42.805,6.029,13.2956,4.59973,2469.83,2019-6-21T13:10:17Z
2019-06-21T11:13:03Z,42.805,6.029,13.2956,4.59972,2469.83,2019-6-21T13:13:20Z
2019-06-21T11:16:06Z,42.805,6.029,13.2957,4.59973,2469.867,2019-6-21T13:16:23Z
2019-06-21T11:19:09Z,42.805,6.029,13.2956,4.59979,2469.806,2019-6-21T13:19:26Z
2019-06-21T11:22:12Z,42.805,6.029,13.2955,4.59978,2469.867,2019-6-21T13:22:29Z
2019-06-21T11:25:15Z,42.805,6.029,13.2957,4.59981,2469.844,2019-6-21T13:25:32Z
2019-06-21T11:28:18Z,42.805,6.029,13.2958,4.59975,2469.844,2019-6-21T13:28:35Z
2019-06-21T11:31:21Z,42.805,6.029,13.2958,4.59973,2469.867,2019-6-21T13:31:38Z
2019-06-21T11:34:24Z,42.805,6.029,13.2958,4.59967,2469.867,2019-6-21T13:34:40Z
2019-06-21T11:37:27Z,42.805,6.029,13.2957,4.59971,2469.83,2019-6-21T13:37:43Z
2019-06-21T11:40:30Z,42.805,6.029,13.2958,4.59976,2469.853,2019-6-21T13:40:46Z
2019-06-21T11:43:33Z,42.805,6.029,13.2956,4.59982,2469.83,2019-6-21T13:43:49Z
2019-06-21T11:46:36Z,42.805,6.029,13.2961,4.59980,2469.83,2019-6-21T13:46:52Z
2019-06-21T11:49:39Z,42.805,6.029,13.2959,4.59971,2469.844,2019-6-21T13:49:55Z
2019-06-21T11:52:42Z,42.805,6.029,13.2964,4.59973,2469.793,2019-6-21T13:52:58Z
2019-06-21T11:55:45Z,42.805,6.029,13.2953,4.59969,2469.844,2019-6-21T13:56:01Z
2019-06-21T11:58:48Z,42.805,6.029,13.2958,4.59978,2469.844,2019-6-21T13:59:04Z
2019-06-21T12:01:51Z,42.805,6.029,13.2957,4.59979,2469.806,2019-6-21T14:02:07Z
2019-06-21T12:04:53Z,42.805,6.029,13.2958,4.59970,2469.867,2019-6-21T14:05:10Z
2019-06-21T12:07:56Z,42.805,6.029,13.2958,4.59969,2469.853,2019-6-21T14:08:13Z
2019-06-21T12:10:59Z,42.805,6.029,13.2954,4.59968,2469.83,2019-6-21T14:11:16Z
2019-06-21T12:14:02Z,42.805,6.029,13.2957,4.59972,2469.806,2019-6-21T14:14:19Z
2019-06-21T12:17:05Z,42.805,6.029,13.2957,4.59968,2469.806,2019-6-21T14:17:22Z
2019-06-21T12:20:08Z,42.805,6.029,13.2958,4.59969,2469.821,2019-6-21T14:20:25Z
2019-06-21T12:23:11Z,42.805,6.029,13.2958,4.59963,2469.844,2019-6-21T14:23:28Z
2019-06-21T12:26:14Z,42.805,6.029,13.2958,4.59969,2469.844,2019-6-21T14:26:31Z
2019-06-21T12:29:17Z,42.805,6.029,13.2958,4.59970,2469.844,2019-6-21T14:29:34Z
2019-06-21T12:32:20Z,42.805,6.029,13.2956,4.59967,2469.806,2019-6-21T14:32:37Z
2019-06-21T12:35:23Z,42.805,6.029,13.2957,4.59972,2469.853,2019-6-21T14:35:40Z
2019-06-21T12:38:26Z,42.805,6.029,13.2957,4.59977,2469.806,2019-6-21T14:38:42Z
2019-06-21T12:41:29Z,42.805,6.029,13.2959,4.59966,2469.806,2019-6-21T14:41:45Z
2019-06-21T12:44:32Z,42.805,6.029,13.2958,4.59968,2469.821,2019-6-21T14:44:48Z
2019-06-21T12:47:35Z,42.805,6.029,13.2960,4.59967,2469.797,2019-6-21T14:47:51Z
2019-06-21T12:50:38Z,42.805,6.029,13.2961,4.59974,2469.821,2019-6-21T14:50:54Z
2019-06-21T12:53:41Z,42.805,6.029,13.2958,4.59965,2469.821,2019-6-21T14:53:57Z
2019-06-21T12:56:44Z,42.805,6.029,13.2958,4.59966,2469.821,2019-6-21T14:57:00Z
2019-06-21T12:59:47Z,42.805,6.029,13.2957,4.59964,2469.783,2019-6-21T15:00:03Z
2019-06-21T13:02:50Z,42.805,6.029,13.2957,4.59964,2469.783,2019-6-21T15:03:06Z
2019-06-21T13:05:53Z,42.805,6.029,13.2957,4.59968,2469.806,2019-6-21T15:06:09Z
2019-06-21T13:08:55Z,42.805,6.029,13.2956,4.59972,2469.783,2019-6-21T15:09:12Z
2019-06-21T13:11:58Z,42.805,6.029,13.2958,4.59973,2469.821,2019-6-21T15:12:15Z
2019-06-21T13:15:01Z,42.805,6.029,13.2961,4.59973,2469.783,2019-6-21T15:15:18Z
2019-06-21T13:18:04Z,42.805,6.029,13.2959,4.59971,2469.806,2019-6-21T15:18:21Z
2019-06-21T13:21:07Z,42.805,6.029,13.2959,4.59976,2469.783,2019-6-21T15:21:24Z
2019-06-21T13:24:10Z,42.805,6.029,13.2954,4.59965,2469.844,2019-6-21T15:24:27Z
2019-06-21T13:27:13Z,42.805,6.029,13.2958,4.59971,2469.797,2019-6-21T15:27:30Z
2019-06-21T13:30:16Z,42.805,6.029,13.2960,4.59969,2469.773,2019-6-21T15:30:33Z
2019-06-21T13:33:19Z,42.805,6.029,13.2954,4.59966,2469.821,2019-6-21T15:33:36Z
2019-06-21T13:36:22Z,42.805,6.029,13.2958,4.59967,2469.821,2019-6-21T15:36:39Z
2019-06-21T13:39:25Z,42.805,6.029,13.2958,4.59970,2469.83,2019-6-21T15:39:42Z
2019-06-21T13:42:28Z,42.805,6.029,13.2961,4.59967,2469.821,2019-6-21T15:42:45Z
2019-06-21T13:45:31Z,42.805,6.029,13.2957,4.59971,2469.773,2019-6-21T15:45:47Z
2019-06-21T13:48:34Z,42.805,6.029,13.2959,4.59968,2469.806,2019-6-21T15:48:50Z
2019-06-21T13:51:37Z,42.805,6.029,13.2957,4.59964,2469.783,2019-6-21T15:51:53Z
2019-06-21T13:54:40Z,42.805,6.029,13.2955,4.59968,2469.797,2019-6-21T15:54:56Z
2019-06-21T13:57:43Z,42.805,6.029,13.2960,4.59969,2469.821,2019-6-21T15:57:59Z
2019-06-21T14:00:46Z,42.805,6.029,13.2956,4.59962,2469.783,2019-6-21T16:01:02Z
2019-06-21T14:03:49Z,42.805,6.029,13.2958,4.59972,2469.783,2019-6-21T16:04:05Z
2019-06-21T14:06:52Z,42.805,6.029,13.2959,4.59965,2469.797,2019-6-21T16:07:08Z
2019-06-21T14:09:55Z,42.805,6.029,13.2955,4.59964,2469.773,2019-6-21T16:10:11Z
2019-06-21T14:12:57Z,42.805,6.029,13.2958,4.59965,2469.737,2019-6-21T16:13:14Z
2019-06-21T14:16:00Z,42.805,6.029,13.2957,4.59962,2469.773,2019-6-21T16:16:17Z
2019-06-21T14:19:03Z,42.805,6.029,13.2954,4.59966,2469.797,2019-6-21T16:19:20Z
2019-06-21T14:22:06Z,42.805,6.029,13.2959,4.59968,2469.76,2019-6-21T16:22:23Z
2019-06-21T14:25:09Z,42.805,6.029,13.2954,4.59973,2469.783,2019-6-21T16:25:26Z
2019-06-21T14:28:12Z,42.805,6.029,13.2961,4.59968,2469.797,2019-6-21T16:28:29Z
2019-06-21T14:31:15Z,42.805,6.029,13.2958,4.59963,2469.783,2019-6-21T16:31:32Z
2019-06-21T14:34:18Z,42.805,6.029,13.2961,4.59966,2469.783,2019-6-21T16:34:35Z
2019-06-21T14:37:21Z,42.805,6.029,13.2958,4.59968,2469.797,2019-6-21T16:37:38Z
2019-06-21T14:40:24Z,42.805,6.029,13.2958,4.59964,2469.737,2019-6-21T16:40:41Z
2019-06-21T14:43:27Z,42.805,6.029,13.2956,4.59964,2469.773,2019-6-21T16:43:44Z
2019-06-21T14:46:30Z,42.805,6.029,13.2963,4.59967,2469.773,2019-6-21T16:46:47Z
2019-06-21T14:49:33Z,42.805,6.029,13.2958,4.59976,2469.797,2019-6-21T16:49:49Z
2019-06-21T14:52:36Z,42.805,6.029,13.2961,4.59963,2469.773,2019-6-21T16:52:52Z
2019-06-21T14:55:39Z,42.805,6.029,13.2957,4.59966,2469.76,2019-6-21T16:55:55Z
2019-06-21T14:58:42Z,42.805,6.029,13.2957,4.59966,2469.76,2019-6-21T16:58:58Z
2019-06-21T15:01:45Z,42.805,6.029,13.2955,4.59966,2469.797,2019-6-21T17:02:01Z
2019-06-21T15:04:48Z,42.805,6.029,13.2960,4.59965,2469.797,2019-6-21T17:05:04Z
2019-06-21T15:07:51Z,42.805,6.029,13.2958,4.59964,2469.773,2019-6-21T17:08:07Z
2019-06-21T15:10:54Z,42.805,6.029,13.2961,4.59964,2469.783,2019-6-21T17:11:10Z